Time,TemperatureF,DewpointF,PressureIn,WindDirection,WindDirectionDegrees,WindSpeedMPH,WindSpeedGustMPH,Humidity,HourlyPrecipIn,Conditions,Clouds,dailyrainin,SoftwareType,DateUTC
2013-01-11 00:00:00,69.1,64.8,30.25,SE,126,1.0,4.0,86,0.00,,,0.00,meteohub,2013-01-11 05:00:00,
2013-01-11 00:02:00,69.1,64.8,30.25,SE,126,0.0,4.0,86,0.00,,,0.00,meteohub,2013-01-11 05:02:00,
2013-01-11 00:03:00,69.1,64.8,30.25,North,355,2.0,4.0,86,0.00,,,0.00,meteohub,2013-01-11 05:03:00,
2013-01-11 00:06:00,68.9,64.6,30.24,ESE,107,0.0,4.0,86,0.00,,,0.00,meteohub,2013-01-11 05:06:00,
2013-01-11 00:12:00,68.7,64.8,30.25,SE,125,0.0,4.0,87,0.00,,,0.00,meteohub,2013-01-11 05:12:00,
2013-01-11 00:17:00,68.5,64.6,30.25,SE,124,1.0,6.0,87,0.00,,,0.00,meteohub,2013-01-11 05:17:00,
2013-01-11 00:22:00,68.5,64.6,30.24,SE,135,0.0,6.0,87,0.00,,,0.00,meteohub,2013-01-11 05:22:00,
2013-01-11 00:27:00,68.4,64.6,30.24,ESE,115,0.0,6.0,88,0.00,,,0.00,meteohub,2013-01-11 05:27:00,
2013-01-11 00:32:00,68.4,64.6,30.24,ESE,115,0.0,3.0,88,0.00,,,0.00,meteohub,2013-01-11 05:32:00,
2013-01-11 00:37:00,68.2,64.4,30.24,ESE,115,0.0,3.0,88,0.00,,,0.00,meteohub,2013-01-11 05:37:00,
2013-01-11 00:42:00,68.2,64.4,30.23,ESE,115,1.0,3.0,88,0.00,,,0.00,meteohub,2013-01-11 05:42:00,
2013-01-11 00:47:00,68.2,64.8,30.23,SE,140,0.0,5.0,89,0.00,,,0.00,meteohub,2013-01-11 05:47:00,
2013-01-11 00:52:00,68.0,64.6,30.24,SE,132,1.0,5.0,89,0.00,,,0.00,meteohub,2013-01-11 05:52:00,
2013-01-11 00:57:00,67.8,64.4,30.23,SE,132,1.0,5.0,89,0.00,,,0.00,meteohub,2013-01-11 05:57:00,
2013-01-11 01:02:00,67.8,64.4,30.23,SE,132,0.0,2.0,89,0.00,,,0.00,meteohub,2013-01-11 06:02:00,
2013-01-11 01:07:00,67.6,64.2,30.23,SE,132,0.0,2.0,89,0.00,,,0.00,meteohub,2013-01-11 06:07:00,
2013-01-11 01:12:00,67.5,64.4,30.23,SE,132,0.0,2.0,90,0.00,,,0.00,meteohub,2013-01-11 06:12:00,
2013-01-11 01:17:00,67.3,64.2,30.23,SE,142,0.0,2.0,90,0.00,,,0.00,meteohub,2013-01-11 06:17:00,
2013-01-11 01:22:00,67.3,64.2,30.23,SE,142,0.0,2.0,90,0.00,,,0.00,meteohub,2013-01-11 06:22:00,
2013-01-11 01:27:00,67.1,64.0,30.23,SE,142,0.0,2.0,90,0.00,,,0.00,meteohub,2013-01-11 06:27:00,
2013-01-11 01:32:00,66.9,64.2,30.23,SE,142,0.0,1.0,91,0.00,,,0.00,meteohub,2013-01-11 06:32:00,
2013-01-11 01:37:00,66.7,63.7,30.23,SE,142,0.0,1.0,90,0.00,,,0.00,meteohub,2013-01-11 06:37:00,
2013-01-11 01:42:00,66.6,63.9,30.23,SE,142,0.0,1.0,91,0.00,,,0.00,meteohub,2013-01-11 06:42:00,
2013-01-11 01:47:00,66.6,63.9,30.23,SE,142,0.0,3.0,91,0.00,,,0.00,meteohub,2013-01-11 06:47:00,
2013-01-11 01:52:00,66.4,63.7,30.23,SE,142,0.0,3.0,91,0.00,,,0.00,meteohub,2013-01-11 06:52:00,
2013-01-11 01:57:00,66.0,63.3,30.23,SE,142,0.0,1.0,91,0.00,,,0.00,meteohub,2013-01-11 06:57:00,
2013-01-11 02:02:00,66.0,63.3,30.23,SE,142,0.0,1.0,91,0.00,,,0.00,meteohub,2013-01-11 07:02:00,
2013-01-11 02:07:00,65.8,63.5,30.22,SE,142,0.0,1.0,92,0.00,,,0.00,meteohub,2013-01-11 07:07:00,
2013-01-11 02:12:00,65.7,63.3,30.22,SE,142,0.0,1.0,92,0.00,,,0.00,meteohub,2013-01-11 07:12:00,
2013-01-11 02:17:00,65.5,63.1,30.22,SE,142,0.0,1.0,92,0.00,,,0.00,meteohub,2013-01-11 07:17:00,
2013-01-11 02:22:00,65.5,63.3,30.22,SE,142,0.0,1.0,93,0.00,,,0.00,meteohub,2013-01-11 07:22:00,
2013-01-11 02:27:00,65.3,63.1,30.22,SE,142,0.0,1.0,93,0.00,,,0.00,meteohub,2013-01-11 07:27:00,
2013-01-11 02:32:00,65.1,63.0,30.22,SE,142,0.0,1.0,93,0.00,,,0.00,meteohub,2013-01-11 07:32:00,
2013-01-11 02:37:00,64.9,62.8,30.22,SE,142,0.0,1.0,93,0.00,,,0.00,meteohub,2013-01-11 07:37:00,
2013-01-11 02:42:00,64.8,62.6,30.22,SE,142,0.0,1.0,93,0.00,,,0.00,meteohub,2013-01-11 07:42:00,
2013-01-11 02:47:00,64.6,62.8,30.23,SE,142,0.0,1.0,94,0.00,,,0.00,meteohub,2013-01-11 07:47:00,
2013-01-11 02:52:00,64.6,62.8,30.22,SE,142,0.0,1.0,94,0.00,,,0.00,meteohub,2013-01-11 07:52:00,
2013-01-11 02:57:00,64.6,63.1,30.22,SE,137,0.0,1.0,95,0.00,,,0.00,meteohub,2013-01-11 07:57:00,
2013-01-11 03:02:00,64.6,63.1,30.22,SE,137,0.0,2.0,95,0.00,,,0.00,meteohub,2013-01-11 08:02:00,
2013-01-11 03:07:00,64.8,63.3,30.22,SE,137,0.0,2.0,95,0.00,,,0.00,meteohub,2013-01-11 08:07:00,
2013-01-11 03:12:00,64.8,63.3,30.22,SE,137,0.0,2.0,95,0.00,,,0.00,meteohub,2013-01-11 08:12:00,
2013-01-11 03:17:00,64.8,63.3,30.22,SE,137,0.0,2.0,95,0.00,,,0.00,meteohub,2013-01-11 08:17:00,
2013-01-11 03:22:00,64.8,63.3,30.22,SE,137,0.0,1.0,95,0.00,,,0.00,meteohub,2013-01-11 08:22:00,
2013-01-11 03:27:00,64.8,63.3,30.21,SE,137,0.0,1.0,95,0.00,,,0.00,meteohub,2013-01-11 08:27:00,
2013-01-11 03:32:00,64.8,63.3,30.21,SE,137,0.0,1.0,95,0.00,,,0.00,meteohub,2013-01-11 08:32:00,
2013-01-11 03:37:00,64.8,63.3,30.21,SE,137,0.0,1.0,95,0.00,,,0.00,meteohub,2013-01-11 08:37:00,
2013-01-11 03:42:00,64.8,63.3,30.20,SE,137,0.0,1.0,95,0.00,,,0.00,meteohub,2013-01-11 08:42:00,
2013-01-11 03:47:00,64.9,63.9,30.20,SE,137,0.0,1.0,96,0.00,,,0.00,meteohub,2013-01-11 08:47:00,
2013-01-11 03:52:00,64.9,63.9,30.20,SE,137,0.0,2.0,96,0.00,,,0.00,meteohub,2013-01-11 08:52:00,
2013-01-11 03:57:00,65.1,64.0,30.19,SE,146,0.0,2.0,96,0.00,,,0.00,meteohub,2013-01-11 08:57:00,
2013-01-11 04:02:00,65.1,64.0,30.19,SE,146,0.0,4.0,96,0.00,,,0.00,meteohub,2013-01-11 09:02:00,
2013-01-11 04:07:00,65.1,64.0,30.19,SE,146,0.0,4.0,96,0.00,,,0.00,meteohub,2013-01-11 09:07:00,
2013-01-11 04:12:00,64.9,63.9,30.19,SE,146,0.0,4.0,96,0.00,,,0.00,meteohub,2013-01-11 09:12:00,
2013-01-11 04:17:00,64.9,63.9,30.19,SE,146,0.0,1.0,96,0.00,,,0.00,meteohub,2013-01-11 09:17:00,
2013-01-11 04:22:00,64.8,63.3,30.19,SE,146,0.0,1.0,95,0.00,,,0.00,meteohub,2013-01-11 09:22:00,
2013-01-11 04:27:00,64.8,63.3,30.19,SE,146,0.0,1.0,95,0.00,,,0.00,meteohub,2013-01-11 09:27:00,
2013-01-11 04:32:00,64.6,63.5,30.19,SE,146,0.0,1.0,96,0.00,,,0.00,meteohub,2013-01-11 09:32:00,
2013-01-11 04:37:00,64.2,63.1,30.19,SE,146,0.0,0.0,96,0.00,,,0.00,meteohub,2013-01-11 09:37:00,
2013-01-11 04:42:00,64.2,63.1,30.19,SE,146,0.0,1.0,96,0.00,,,0.00,meteohub,2013-01-11 09:42:00,
2013-01-11 04:47:00,64.0,63.0,30.19,SE,146,0.0,1.0,96,0.00,,,0.00,meteohub,2013-01-11 09:47:00,
2013-01-11 04:52:00,63.9,62.8,30.19,SE,146,0.0,1.0,96,0.00,,,0.00,meteohub,2013-01-11 09:52:00,
2013-01-11 04:57:00,63.9,62.8,30.19,SE,146,0.0,1.0,96,0.00,,,0.00,meteohub,2013-01-11 09:57:00,
2013-01-11 05:02:00,63.7,62.6,30.19,SE,146,0.0,1.0,96,0.00,,,0.00,meteohub,2013-01-11 10:02:00,
2013-01-11 05:07:00,63.9,62.8,30.19,SE,146,0.0,1.0,96,0.00,,,0.00,meteohub,2013-01-11 10:07:00,
2013-01-11 05:12:00,63.7,62.6,30.19,SE,146,0.0,1.0,96,0.00,,,0.00,meteohub,2013-01-11 10:12:00,
2013-01-11 05:17:00,63.9,63.0,30.19,SE,146,1.0,2.0,97,0.00,,,0.00,meteohub,2013-01-11 10:17:00,
2013-01-11 05:22:00,63.9,63.0,30.19,SE,146,0.0,2.0,97,0.00,,,0.00,meteohub,2013-01-11 10:22:00,
2013-01-11 05:27:00,63.7,62.6,30.19,SE,146,1.0,2.0,96,0.00,,,0.00,meteohub,2013-01-11 10:27:00,
2013-01-11 05:32:00,63.9,63.0,30.19,SE,146,0.0,1.0,97,0.00,,,0.00,meteohub,2013-01-11 10:32:00,
2013-01-11 05:37:00,64.0,63.1,30.19,SE,146,0.0,1.0,97,0.00,,,0.00,meteohub,2013-01-11 10:37:00,
2013-01-11 05:42:00,64.0,63.1,30.18,SE,146,0.0,1.0,97,0.00,,,0.00,meteohub,2013-01-11 10:42:00,
2013-01-11 05:47:00,64.2,63.3,30.19,SE,146,0.0,1.0,97,0.00,,,0.00,meteohub,2013-01-11 10:47:00,
2013-01-11 05:52:00,64.4,63.5,30.19,SE,146,0.0,1.0,97,0.00,,,0.00,meteohub,2013-01-11 10:52:00,
2013-01-11 05:57:00,64.6,63.7,30.19,SE,146,0.0,1.0,97,0.00,,,0.00,meteohub,2013-01-11 10:57:00,
2013-01-11 06:02:00,64.6,63.7,30.19,SE,146,0.0,1.0,97,0.00,,,0.00,meteohub,2013-01-11 11:02:00,
2013-01-11 06:07:00,64.6,63.7,30.19,SE,146,0.0,1.0,97,0.00,,,0.00,meteohub,2013-01-11 11:07:00,
2013-01-11 06:12:00,64.6,63.7,30.19,SE,146,0.0,1.0,97,0.00,,,0.00,meteohub,2013-01-11 11:12:00,
2013-01-11 06:17:00,64.8,63.9,30.18,SE,146,0.0,1.0,97,0.00,,,0.00,meteohub,2013-01-11 11:17:00,
2013-01-11 06:22:00,64.8,64.2,30.19,SE,146,0.0,1.0,98,0.00,,,0.00,meteohub,2013-01-11 11:22:00,
2013-01-11 06:27:00,64.9,64.4,30.19,SE,146,0.0,1.0,98,0.00,,,0.00,meteohub,2013-01-11 11:27:00,
2013-01-11 06:32:00,64.9,64.0,30.19,SE,146,0.0,1.0,97,0.00,,,0.00,meteohub,2013-01-11 11:32:00,
2013-01-11 06:37:00,64.9,64.0,30.18,SE,146,0.0,1.0,97,0.00,,,0.00,meteohub,2013-01-11 11:37:00,
2013-01-11 06:42:00,64.9,64.0,30.19,SE,146,0.0,1.0,97,0.00,,,0.00,meteohub,2013-01-11 11:42:00,
2013-01-11 06:47:00,64.9,64.0,30.19,SE,146,0.0,1.0,97,0.00,,,0.00,meteohub,2013-01-11 11:47:00,
2013-01-11 06:52:00,64.9,64.0,30.19,SE,146,0.0,1.0,97,0.00,,,0.00,meteohub,2013-01-11 11:52:00,
2013-01-11 06:57:00,64.8,63.9,30.19,SE,146,1.0,1.0,97,0.00,,,0.00,meteohub,2013-01-11 11:57:00,
2013-01-11 07:02:00,64.8,63.9,30.20,SE,146,0.0,1.0,97,0.00,,,0.00,meteohub,2013-01-11 12:02:00,
2013-01-11 07:07:00,64.6,63.7,30.20,SE,146,0.0,1.0,97,0.00,,,0.00,meteohub,2013-01-11 12:07:00,
2013-01-11 07:12:00,64.6,63.7,30.20,SE,146,0.0,1.0,97,0.00,,,0.00,meteohub,2013-01-11 12:12:00,
2013-01-11 07:18:00,64.8,64.2,30.20,SE,146,0.0,1.0,98,0.00,,,0.00,meteohub,2013-01-11 12:18:00,
2013-01-11 07:24:00,64.8,64.2,30.20,SE,146,0.0,0.0,98,0.00,,,0.00,meteohub,2013-01-11 12:24:00,
2013-01-11 07:30:00,64.9,64.4,30.20,SE,146,1.0,0.0,98,0.01,,,0.01,meteohub,2013-01-11 12:30:00,
2013-01-11 07:36:00,65.1,64.6,30.20,SE,146,0.0,2.0,98,0.01,,,0.01,meteohub,2013-01-11 12:36:00,
2013-01-11 07:42:00,65.5,64.9,30.21,SE,146,1.0,2.0,98,0.01,,,0.01,meteohub,2013-01-11 12:42:00,
2013-01-11 07:47:00,65.7,65.1,30.21,SE,142,0.0,2.0,98,0.01,,,0.01,meteohub,2013-01-11 12:47:00,
2013-01-11 07:52:00,65.8,65.3,30.21,SE,142,0.0,2.0,98,0.01,,,0.01,meteohub,2013-01-11 12:52:00,
2013-01-11 07:57:00,65.8,65.3,30.21,SE,140,0.0,2.0,98,0.01,,,0.01,meteohub,2013-01-11 12:57:00,
2013-01-11 08:02:00,66.2,65.7,30.21,ESE,107,0.0,2.0,98,0.01,,,0.01,meteohub,2013-01-11 13:02:00,
2013-01-11 08:07:00,66.4,65.8,30.21,ENE,77,0.0,3.0,98,0.01,,,0.01,meteohub,2013-01-11 13:07:00,
2013-01-11 08:12:00,66.6,66.0,30.21,ENE,77,0.0,3.0,98,0.01,,,0.01,meteohub,2013-01-11 13:12:00,
2013-01-11 08:17:00,66.6,66.0,30.22,ENE,77,2.0,3.0,98,0.01,,,0.01,meteohub,2013-01-11 13:17:00,
2013-01-11 08:22:00,66.7,66.2,30.22,ENE,77,1.0,3.0,98,0.01,,,0.01,meteohub,2013-01-11 13:22:00,
2013-01-11 08:27:00,66.9,66.4,30.21,ENE,69,2.0,3.0,98,0.01,,,0.01,meteohub,2013-01-11 13:27:00,
2013-01-11 08:32:00,67.1,66.2,30.22,ESE,117,1.0,6.0,97,0.00,,,0.01,meteohub,2013-01-11 13:32:00,
2013-01-11 08:37:00,67.5,66.6,30.22,ESE,123,2.0,6.0,97,0.00,,,0.01,meteohub,2013-01-11 13:37:00,
2013-01-11 08:42:00,67.6,66.7,30.22,ESE,122,0.0,6.0,97,0.00,,,0.01,meteohub,2013-01-11 13:42:00,
2013-01-11 08:47:00,67.8,66.6,30.22,ESE,113,0.0,3.0,96,0.00,,,0.01,meteohub,2013-01-11 13:47:00,
2013-01-11 08:52:00,68.2,66.7,30.22,East,82,2.0,4.0,95,0.00,,,0.01,meteohub,2013-01-11 13:52:00,
2013-01-11 08:57:00,68.4,66.9,30.22,East,80,3.0,4.0,95,0.00,,,0.01,meteohub,2013-01-11 13:57:00,
2013-01-11 09:02:00,68.5,66.7,30.22,ESE,118,2.0,3.0,94,0.00,,,0.01,meteohub,2013-01-11 14:02:00,
2013-01-11 09:07:00,68.7,66.6,30.22,ENE,63,0.0,3.0,93,0.00,,,0.01,meteohub,2013-01-11 14:07:00,
2013-01-11 09:12:00,69.1,66.9,30.22,ENE,71,3.0,6.0,93,0.00,,,0.01,meteohub,2013-01-11 14:12:00,
2013-01-11 09:17:00,69.3,67.1,30.22,ENE,58,4.0,6.0,93,0.00,,,0.01,meteohub,2013-01-11 14:17:00,
2013-01-11 09:22:00,69.8,67.1,30.22,SSE,151,2.0,8.0,91,0.00,,,0.01,meteohub,2013-01-11 14:22:00,
2013-01-11 09:27:00,70.3,67.3,30.22,SE,130,1.0,8.0,90,0.00,,,0.01,meteohub,2013-01-11 14:27:00,
2013-01-11 09:32:00,71.1,67.6,30.22,SE,143,2.0,8.0,89,0.00,,,0.01,meteohub,2013-01-11 14:32:00,
2013-01-11 09:37:00,71.2,67.5,30.22,SE,126,4.0,7.0,88,0.00,,,0.01,meteohub,2013-01-11 14:37:00,
2013-01-11 09:42:00,71.2,67.5,30.22,ESE,123,7.0,7.0,88,0.00,,,0.01,meteohub,2013-01-11 14:42:00,
2013-01-11 09:47:00,71.2,67.5,30.22,SE,137,4.0,7.0,88,0.00,,,0.01,meteohub,2013-01-11 14:47:00,
2013-01-11 09:52:00,71.4,67.6,30.21,SE,130,5.0,8.0,88,0.00,,,0.01,meteohub,2013-01-11 14:52:00,
2013-01-11 09:57:00,71.8,68.0,30.21,East,101,0.0,10.0,88,0.00,,,0.01,meteohub,2013-01-11 14:57:00,
2013-01-11 10:02:00,72.3,67.8,30.21,ESE,121,4.0,10.0,86,0.00,,,0.01,meteohub,2013-01-11 15:02:00,
2013-01-11 10:07:00,72.9,67.8,30.21,East,98,1.0,10.0,84,0.00,,,0.01,meteohub,2013-01-11 15:07:00,
2013-01-11 10:12:00,73.0,67.6,30.21,South,171,3.0,8.0,83,0.00,,,0.01,meteohub,2013-01-11 15:12:00,
2013-01-11 10:17:00,73.2,67.8,30.21,SE,146,5.0,11.0,83,0.00,,,0.01,meteohub,2013-01-11 15:17:00,
2013-01-11 10:22:00,73.9,68.4,30.21,SE,143,2.0,11.0,83,0.00,,,0.01,meteohub,2013-01-11 15:22:00,
2013-01-11 10:27:00,74.5,68.5,30.21,SE,134,2.0,11.0,82,0.00,,,0.01,meteohub,2013-01-11 15:27:00,
2013-01-11 10:32:00,75.2,68.9,30.22,SE,132,2.0,8.0,81,0.00,,,0.01,meteohub,2013-01-11 15:32:00,
2013-01-11 10:37:00,76.3,69.3,30.22,SE,132,2.0,8.0,79,0.00,,,0.01,meteohub,2013-01-11 15:37:00,
2013-01-11 10:42:00,76.8,69.8,30.21,SSE,156,4.0,7.0,79,0.00,,,0.01,meteohub,2013-01-11 15:42:00,
2013-01-11 10:47:00,76.8,69.4,30.21,ESE,122,4.0,8.0,78,0.00,,,0.01,meteohub,2013-01-11 15:47:00,
2013-01-11 10:52:00,76.5,69.4,30.21,SE,142,2.0,11.0,79,0.00,,,0.01,meteohub,2013-01-11 15:52:00,
2013-01-11 10:57:00,76.6,68.9,30.21,NNE,29,2.0,11.0,77,0.00,,,0.01,meteohub,2013-01-11 15:57:00,
2013-01-11 11:02:00,77.4,69.6,30.21,South,181,3.0,11.0,77,0.00,,,0.01,meteohub,2013-01-11 16:02:00,
2013-01-11 11:07:00,77.7,68.7,30.21,SE,128,1.0,10.0,74,0.00,,,0.01,meteohub,2013-01-11 16:07:00,
2013-01-11 11:12:00,78.6,69.3,30.21,SSE,154,3.0,10.0,73,0.00,,,0.01,meteohub,2013-01-11 16:12:00,
2013-01-11 11:17:00,78.8,68.2,30.20,SE,134,5.0,9.0,70,0.00,,,0.01,meteohub,2013-01-11 16:17:00,
2013-01-11 11:22:00,79.0,68.4,30.20,North,0,10.0,10.0,70,0.00,,,0.01,meteohub,2013-01-11 16:22:00,
2013-01-11 11:27:00,79.0,68.0,30.20,SE,140,7.0,16.0,69,0.00,,,0.01,meteohub,2013-01-11 16:27:00,
2013-01-11 11:32:00,78.6,67.6,30.20,SE,131,6.0,16.0,69,0.00,,,0.01,meteohub,2013-01-11 16:32:00,
2013-01-11 11:37:00,79.0,68.4,30.19,ESE,111,1.0,16.0,70,0.00,,,0.01,meteohub,2013-01-11 16:37:00,
2013-01-11 11:42:00,79.3,67.8,30.19,ESE,112,3.0,9.0,68,0.00,,,0.01,meteohub,2013-01-11 16:42:00,
2013-01-11 11:47:00,79.5,67.1,30.19,NE,51,2.0,8.0,66,0.00,,,0.01,meteohub,2013-01-11 16:47:00,
2013-01-11 11:52:00,80.1,66.4,30.19,South,170,6.0,9.0,63,0.00,,,0.01,meteohub,2013-01-11 16:52:00,
2013-01-11 11:57:00,80.1,65.8,30.18,SSE,148,2.0,10.0,62,0.00,,,0.01,meteohub,2013-01-11 16:57:00,
2013-01-11 12:02:00,80.2,66.6,30.18,SSW,192,2.0,10.0,63,0.00,,,0.01,meteohub,2013-01-11 17:02:00,
2013-01-11 12:07:00,80.8,66.6,30.18,SSE,163,6.0,10.0,62,0.00,,,0.01,meteohub,2013-01-11 17:07:00,
2013-01-11 12:12:00,81.0,67.1,30.18,SE,126,6.0,10.0,63,0.00,,,0.01,meteohub,2013-01-11 17:12:00,
2013-01-11 12:17:00,81.0,66.2,30.18,ESE,118,3.0,10.0,61,0.00,,,0.01,meteohub,2013-01-11 17:17:00,
2013-01-11 12:22:00,80.4,66.7,30.17,SE,128,2.0,10.0,63,0.00,,,0.01,meteohub,2013-01-11 17:22:00,
2013-01-11 12:27:00,81.0,66.7,30.17,South,169,6.0,10.0,62,0.00,,,0.01,meteohub,2013-01-11 17:27:00,
2013-01-11 12:32:00,81.5,66.2,30.17,SSW,199,2.0,7.0,60,0.00,,,0.01,meteohub,2013-01-11 17:32:00,
2013-01-11 12:37:00,81.3,66.0,30.17,SE,126,3.0,9.0,60,0.00,,,0.01,meteohub,2013-01-11 17:37:00,
2013-01-11 12:42:00,81.3,66.0,30.16,WSW,254,3.0,9.0,60,0.00,,,0.01,meteohub,2013-01-11 17:42:00,
2013-01-11 12:47:00,81.3,66.0,30.16,East,94,5.0,12.0,60,0.00,,,0.01,meteohub,2013-01-11 17:47:00,
2013-01-11 12:52:00,81.0,65.8,30.16,South,188,3.0,12.0,60,0.00,,,0.01,meteohub,2013-01-11 17:52:00,
2013-01-11 12:57:00,81.0,65.8,30.16,SE,138,4.0,12.0,60,0.00,,,0.01,meteohub,2013-01-11 17:57:00,
2013-01-11 13:02:00,81.0,65.8,30.15,SSE,148,5.0,13.0,60,0.00,,,0.01,meteohub,2013-01-11 18:02:00,
2013-01-11 13:07:00,81.3,66.0,30.15,SSE,165,0.0,13.0,60,0.00,,,0.01,meteohub,2013-01-11 18:07:00,
2013-01-11 13:12:00,82.0,66.4,30.15,SSE,164,4.0,13.0,59,0.00,,,0.01,meteohub,2013-01-11 18:12:00,
2013-01-11 13:17:00,82.0,65.8,30.15,SE,144,6.0,9.0,58,0.00,,,0.01,meteohub,2013-01-11 18:17:00,
2013-01-11 13:22:00,82.0,65.8,30.14,South,190,6.0,9.0,58,0.00,,,0.01,meteohub,2013-01-11 18:22:00,
2013-01-11 13:27:00,82.0,65.8,30.14,SE,144,3.0,9.0,58,0.00,,,0.01,meteohub,2013-01-11 18:27:00,
2013-01-11 13:32:00,82.2,65.5,30.14,East,96,2.0,9.0,57,0.00,,,0.01,meteohub,2013-01-11 18:32:00,
2013-01-11 13:37:00,82.0,65.8,30.14,SSE,152,1.0,11.0,58,0.00,,,0.01,meteohub,2013-01-11 18:37:00,
2013-01-11 13:42:00,81.5,65.8,30.14,SSE,157,6.0,11.0,59,0.00,,,0.01,meteohub,2013-01-11 18:42:00,
2013-01-11 13:47:00,81.7,66.0,30.14,South,173,10.0,11.0,59,0.00,,,0.01,meteohub,2013-01-11 18:47:00,
2013-01-11 13:52:00,82.0,65.3,30.14,SSW,204,1.0,10.0,57,0.00,,,0.01,meteohub,2013-01-11 18:52:00,
2013-01-11 13:57:00,82.2,65.5,30.14,SSW,200,5.0,11.0,57,0.00,,,0.01,meteohub,2013-01-11 18:57:00,
2013-01-11 14:02:00,82.0,65.3,30.13,SSE,153,3.0,11.0,57,0.00,,,0.01,meteohub,2013-01-11 19:02:00,
2013-01-11 14:07:00,81.9,65.1,30.13,SSW,196,2.0,11.0,57,0.00,,,0.01,meteohub,2013-01-11 19:07:00,
2013-01-11 14:12:00,81.5,64.8,30.13,SW,223,1.0,9.0,57,0.00,,,0.01,meteohub,2013-01-11 19:12:00,
2013-01-11 14:17:00,81.7,65.5,30.13,SE,140,3.0,9.0,58,0.00,,,0.01,meteohub,2013-01-11 19:17:00,
2013-01-11 14:22:00,81.5,65.3,30.13,East,98,2.0,12.0,58,0.00,,,0.01,meteohub,2013-01-11 19:22:00,
2013-01-11 14:27:00,81.9,65.7,30.13,ESE,119,0.0,12.0,58,0.00,,,0.01,meteohub,2013-01-11 19:27:00,
2013-01-11 14:32:00,82.6,65.3,30.12,ESE,102,5.0,12.0,56,0.00,,,0.01,meteohub,2013-01-11 19:32:00,
2013-01-11 14:37:00,83.5,65.7,30.13,South,174,3.0,8.0,55,0.00,,,0.01,meteohub,2013-01-11 19:37:00,
2013-01-11 14:42:00,82.9,64.6,30.13,ESE,117,2.0,8.0,54,0.00,,,0.01,meteohub,2013-01-11 19:42:00,
2013-01-11 14:47:00,82.2,64.9,30.12,SSW,194,1.0,8.0,56,0.00,,,0.01,meteohub,2013-01-11 19:47:00,
2013-01-11 14:52:00,82.8,65.5,30.12,SSW,201,5.0,7.0,56,0.00,,,0.01,meteohub,2013-01-11 19:52:00,
2013-01-11 14:57:00,82.9,65.7,30.12,ESE,102,1.0,9.0,56,0.00,,,0.01,meteohub,2013-01-11 19:57:00,
2013-01-11 15:02:00,82.8,64.9,30.12,SSE,167,2.0,9.0,55,0.00,,,0.01,meteohub,2013-01-11 20:02:00,
2013-01-11 15:07:00,83.3,64.9,30.12,ESE,103,9.0,9.0,54,0.00,,,0.01,meteohub,2013-01-11 20:07:00,
2013-01-11 15:15:00,83.3,64.9,30.12,ESE,112,5.0,10.0,54,0.00,,,0.01,meteohub,2013-01-11 20:15:00,
2013-01-11 15:21:00,83.5,66.2,30.12,SE,142,2.0,10.0,56,0.00,,,0.01,meteohub,2013-01-11 20:21:00,
2013-01-11 15:27:00,83.1,66.4,30.12,ENE,62,1.0,9.0,57,0.00,,,0.01,meteohub,2013-01-11 20:27:00,
2013-01-11 15:32:00,82.6,66.4,30.12,SE,133,2.0,7.0,58,0.00,,,0.01,meteohub,2013-01-11 20:32:00,
2013-01-11 15:37:00,82.2,66.0,30.12,ENE,59,3.0,7.0,58,0.00,,,0.01,meteohub,2013-01-11 20:37:00,
2013-01-11 15:42:00,81.7,65.5,30.12,SE,132,4.0,7.0,58,0.00,,,0.01,meteohub,2013-01-11 20:42:00,
2013-01-11 15:47:00,81.5,66.2,30.12,East,101,1.0,11.0,60,0.00,,,0.01,meteohub,2013-01-11 20:47:00,
2013-01-11 15:52:00,81.9,65.7,30.12,SSE,156,3.0,11.0,58,0.00,,,0.01,meteohub,2013-01-11 20:52:00,
2013-01-11 15:57:00,82.6,65.8,30.12,East,92,2.0,11.0,57,0.00,,,0.01,meteohub,2013-01-11 20:57:00,
2013-01-11 16:03:00,83.1,65.8,30.12,SSE,154,1.0,4.0,56,0.00,,,0.01,meteohub,2013-01-11 21:03:00,
2013-01-11 16:09:00,82.9,65.7,30.11,ENE,62,1.0,4.0,56,0.00,,,0.01,meteohub,2013-01-11 21:09:00,
2013-01-11 16:15:00,82.6,65.3,30.11,ENE,76,3.0,5.0,56,0.00,,,0.01,meteohub,2013-01-11 21:15:00,
2013-01-11 16:21:00,81.9,65.1,30.11,ESE,117,4.0,5.0,57,0.00,,,0.01,meteohub,2013-01-11 21:21:00,
2013-01-11 16:27:00,81.9,64.6,30.11,East,98,2.0,5.0,56,0.00,,,0.01,meteohub,2013-01-11 21:27:00,
2013-01-11 16:32:00,81.9,65.1,30.11,ENE,67,2.0,5.0,57,0.00,,,0.01,meteohub,2013-01-11 21:32:00,
2013-01-11 16:37:00,81.7,64.9,30.11,SE,137,2.0,5.0,57,0.00,,,0.01,meteohub,2013-01-11 21:37:00,
2013-01-11 16:42:00,81.7,65.5,30.11,WSW,248,3.0,4.0,58,0.00,,,0.01,meteohub,2013-01-11 21:42:00,
2013-01-11 16:47:00,81.7,65.5,30.11,WSW,244,3.0,5.0,58,0.00,,,0.01,meteohub,2013-01-11 21:47:00,
2013-01-11 16:52:00,81.3,66.0,30.12,SSW,193,2.0,5.0,60,0.00,,,0.01,meteohub,2013-01-11 21:52:00,
2013-01-11 16:57:00,80.6,65.5,30.11,WSW,246,3.0,6.0,60,0.00,,,0.01,meteohub,2013-01-11 21:57:00,
2013-01-11 17:02:00,80.1,65.5,30.12,WSW,247,2.0,6.0,61,0.00,,,0.01,meteohub,2013-01-11 22:02:00,
2013-01-11 17:07:00,79.5,65.3,30.11,SW,232,4.0,7.0,62,0.00,,,0.01,meteohub,2013-01-11 22:07:00,
2013-01-11 17:12:00,78.4,64.8,30.11,SW,229,3.0,7.0,63,0.00,,,0.01,meteohub,2013-01-11 22:12:00,
2013-01-11 17:17:00,77.7,64.9,30.11,SW,232,2.0,7.0,65,0.00,,,0.01,meteohub,2013-01-11 22:17:00,
2013-01-11 17:22:00,77.0,65.1,30.12,SW,216,4.0,7.0,67,0.00,,,0.01,meteohub,2013-01-11 22:22:00,
2013-01-11 17:27:00,76.5,65.1,30.12,WSW,250,3.0,8.0,68,0.00,,,0.01,meteohub,2013-01-11 22:27:00,
2013-01-11 17:32:00,75.9,64.9,30.12,WSW,255,2.0,8.0,69,0.00,,,0.01,meteohub,2013-01-11 22:32:00,
2013-01-11 17:37:00,75.7,65.3,30.12,WSW,250,3.0,7.0,70,0.00,,,0.01,meteohub,2013-01-11 22:37:00,
2013-01-11 17:42:00,75.4,64.9,30.12,WSW,246,3.0,7.0,70,0.00,,,0.01,meteohub,2013-01-11 22:42:00,
2013-01-11 17:47:00,75.0,64.9,30.12,West,280,2.0,8.0,71,0.00,,,0.01,meteohub,2013-01-11 22:47:00,
2013-01-11 17:52:00,74.7,65.1,30.12,West,267,1.0,8.0,72,0.00,,,0.01,meteohub,2013-01-11 22:52:00,
2013-01-11 17:57:00,74.5,64.9,30.12,WSW,258,1.0,8.0,72,0.00,,,0.01,meteohub,2013-01-11 22:57:00,
2013-01-11 18:02:00,74.5,64.9,30.13,WSW,245,2.0,6.0,72,0.00,,,0.01,meteohub,2013-01-11 23:02:00,
2013-01-11 18:07:00,74.1,64.9,30.13,WSW,245,1.0,5.0,73,0.00,,,0.01,meteohub,2013-01-11 23:07:00,
2013-01-11 18:12:00,73.9,64.8,30.12,WSW,245,0.0,4.0,73,0.00,,,0.01,meteohub,2013-01-11 23:12:00,
2013-01-11 18:17:00,73.8,64.9,30.12,WSW,245,1.0,4.0,74,0.00,,,0.01,meteohub,2013-01-11 23:17:00,
2013-01-11 18:22:00,73.6,64.4,30.12,WSW,244,1.0,3.0,73,0.00,,,0.01,meteohub,2013-01-11 23:22:00,
2013-01-11 18:27:00,73.2,64.4,30.12,WSW,244,1.0,4.0,74,0.00,,,0.01,meteohub,2013-01-11 23:27:00,
2013-01-11 18:32:00,73.0,64.2,30.13,WSW,244,1.0,4.0,74,0.00,,,0.01,meteohub,2013-01-11 23:32:00,
2013-01-11 18:37:00,72.7,63.1,30.13,WSW,244,1.0,4.0,72,0.00,,,0.01,meteohub,2013-01-11 23:37:00,
2013-01-11 18:42:00,72.7,63.1,30.13,WSW,244,0.0,3.0,72,0.00,,,0.01,meteohub,2013-01-11 23:42:00,
2013-01-11 18:47:00,72.7,63.5,30.13,WSW,244,0.0,3.0,73,0.00,,,0.01,meteohub,2013-01-11 23:47:00,
2013-01-11 18:52:00,72.5,63.7,30.13,WSW,244,0.0,3.0,74,0.00,,,0.01,meteohub,2013-01-11 23:52:00,
2013-01-11 18:57:00,72.1,63.9,30.13,WSW,244,1.0,1.0,75,0.00,,,0.01,meteohub,2013-01-11 23:57:00,
2013-01-11 19:02:00,72.0,63.7,30.13,WSW,244,0.0,1.0,75,0.00,,,0.01,meteohub,2013-01-12 00:02:00,
2013-01-11 19:07:00,71.4,63.1,30.13,WSW,244,0.0,1.0,75,0.00,,,0.01,meteohub,2013-01-12 00:07:00,
2013-01-11 19:12:00,71.2,63.3,30.13,WSW,244,0.0,1.0,76,0.00,,,0.01,meteohub,2013-01-12 00:12:00,
2013-01-11 19:17:00,70.9,63.0,30.13,WSW,244,0.0,1.0,76,0.00,,,0.01,meteohub,2013-01-12 00:17:00,
2013-01-11 19:22:00,70.5,63.0,30.13,WSW,244,0.0,1.0,77,0.00,,,0.01,meteohub,2013-01-12 00:22:00,
2013-01-11 19:27:00,70.3,63.1,30.13,WSW,244,0.0,0.0,78,0.00,,,0.01,meteohub,2013-01-12 00:27:00,
2013-01-11 19:32:00,70.0,62.8,30.14,WSW,244,0.0,0.0,78,0.00,,,0.01,meteohub,2013-01-12 00:32:00,
2013-01-11 19:37:00,69.8,63.7,30.14,WSW,244,0.0,0.0,81,0.00,,,0.01,meteohub,2013-01-12 00:37:00,
2013-01-11 19:42:00,69.4,63.0,30.13,WSW,244,0.0,1.0,80,0.00,,,0.01,meteohub,2013-01-12 00:42:00,
2013-01-11 19:47:00,69.3,63.1,30.14,WSW,244,0.0,1.0,81,0.00,,,0.01,meteohub,2013-01-12 00:47:00,
2013-01-11 19:52:00,69.1,63.0,30.14,WSW,244,0.0,1.0,81,0.00,,,0.01,meteohub,2013-01-12 00:52:00,
2013-01-11 19:57:00,68.9,62.8,30.14,WSW,244,0.0,1.0,81,0.00,,,0.01,meteohub,2013-01-12 00:57:00,
2013-01-11 20:02:00,69.1,63.3,30.14,WSW,244,0.0,2.0,82,0.00,,,0.01,meteohub,2013-01-12 01:02:00,
2013-01-11 20:07:00,69.1,63.3,30.14,WSW,244,0.0,2.0,82,0.00,,,0.01,meteohub,2013-01-12 01:07:00,
2013-01-11 20:12:00,69.1,63.3,30.14,WSW,244,0.0,1.0,82,0.00,,,0.01,meteohub,2013-01-12 01:12:00,
2013-01-11 20:17:00,68.9,63.1,30.14,WSW,244,0.0,1.0,82,0.00,,,0.01,meteohub,2013-01-12 01:17:00,
2013-01-11 20:22:00,68.9,63.5,30.15,WSW,244,0.0,0.0,83,0.00,,,0.01,meteohub,2013-01-12 01:22:00,
2013-01-11 20:27:00,68.7,63.3,30.14,WSW,244,0.0,0.0,83,0.00,,,0.01,meteohub,2013-01-12 01:27:00,
2013-01-11 20:32:00,68.7,63.7,30.14,WSW,244,0.0,0.0,84,0.00,,,0.01,meteohub,2013-01-12 01:32:00,
2013-01-11 20:37:00,68.7,63.7,30.14,WSW,244,0.0,0.0,84,0.00,,,0.01,meteohub,2013-01-12 01:37:00,
2013-01-11 20:42:00,68.9,64.6,30.15,WSW,244,0.0,0.0,86,0.00,,,0.01,meteohub,2013-01-12 01:42:00,
2013-01-11 20:47:00,68.9,64.6,30.15,WSW,244,0.0,0.0,86,0.00,,,0.01,meteohub,2013-01-12 01:47:00,
2013-01-11 20:52:00,68.9,64.6,30.15,WSW,244,0.0,0.0,86,0.00,,,0.01,meteohub,2013-01-12 01:52:00,
2013-01-11 20:58:00,68.9,64.9,30.15,WSW,244,0.0,0.0,87,0.00,,,0.01,meteohub,2013-01-12 01:58:00,
2013-01-11 21:05:00,69.1,65.3,30.15,WSW,244,0.0,0.0,88,0.00,,,0.01,meteohub,2013-01-12 02:05:00,
2013-01-11 21:11:00,69.1,65.3,30.15,WSW,244,0.0,1.0,88,0.00,,,0.01,meteohub,2013-01-12 02:11:00,
2013-01-11 21:17:00,69.4,66.0,30.15,WSW,244,0.0,1.0,89,0.00,,,0.01,meteohub,2013-01-12 02:17:00,
2013-01-11 21:22:00,69.4,66.0,30.15,WSW,244,0.0,1.0,89,0.00,,,0.01,meteohub,2013-01-12 02:22:00,
2013-01-11 21:27:00,69.6,66.2,30.15,WSW,244,0.0,0.0,89,0.00,,,0.01,meteohub,2013-01-12 02:27:00,
2013-01-11 21:32:00,69.8,66.4,30.15,WSW,244,1.0,1.0,89,0.00,,,0.01,meteohub,2013-01-12 02:32:00,
2013-01-11 21:37:00,70.0,66.9,30.15,WSW,244,0.0,1.0,90,0.00,,,0.01,meteohub,2013-01-12 02:37:00,
2013-01-11 21:42:00,70.0,66.9,30.15,WSW,244,0.0,1.0,90,0.00,,,0.01,meteohub,2013-01-12 02:42:00,
2013-01-11 21:47:00,70.2,67.1,30.15,SSW,192,0.0,1.0,90,0.00,,,0.01,meteohub,2013-01-12 02:47:00,
2013-01-11 21:52:00,70.2,67.1,30.15,South,185,0.0,2.0,90,0.00,,,0.01,meteohub,2013-01-12 02:52:00,
2013-01-11 21:59:00,70.2,66.7,30.15,South,185,0.0,2.0,89,0.00,,,0.01,meteohub,2013-01-12 02:59:00,
2013-01-11 22:05:00,70.3,66.9,30.15,South,185,1.0,2.0,89,0.00,,,0.01,meteohub,2013-01-12 03:05:00,
2013-01-11 22:11:00,70.3,66.9,30.15,South,185,0.0,2.0,89,0.00,,,0.01,meteohub,2013-01-12 03:11:00,
2013-01-11 22:17:00,70.3,67.3,30.15,South,185,0.0,1.0,90,0.00,,,0.01,meteohub,2013-01-12 03:17:00,
2013-01-11 22:22:00,70.3,67.3,30.15,South,185,0.0,2.0,90,0.00,,,0.01,meteohub,2013-01-12 03:22:00,
2013-01-11 22:27:00,70.3,67.3,30.15,South,185,0.0,2.0,90,0.00,,,0.01,meteohub,2013-01-12 03:27:00,
2013-01-11 22:32:00,70.2,67.1,30.15,South,185,0.0,1.0,90,0.00,,,0.01,meteohub,2013-01-12 03:32:00,
2013-01-11 22:37:00,70.2,67.1,30.16,South,185,0.0,1.0,90,0.00,,,0.01,meteohub,2013-01-12 03:37:00,
2013-01-11 22:42:00,70.0,66.9,30.16,South,185,0.0,1.0,90,0.00,,,0.01,meteohub,2013-01-12 03:42:00,
2013-01-11 22:47:00,70.0,66.9,30.16,South,185,0.0,1.0,90,0.00,,,0.01,meteohub,2013-01-12 03:47:00,
2013-01-11 22:52:00,69.6,66.9,30.16,South,185,0.0,1.0,91,0.00,,,0.01,meteohub,2013-01-12 03:52:00,
2013-01-11 22:57:00,69.6,66.9,30.16,South,185,0.0,2.0,91,0.00,,,0.01,meteohub,2013-01-12 03:57:00,
2013-01-11 23:02:00,69.6,66.9,30.16,South,185,0.0,2.0,91,0.00,,,0.01,meteohub,2013-01-12 04:02:00,
2013-01-11 23:07:00,69.4,66.7,30.16,South,185,0.0,2.0,91,0.00,,,0.01,meteohub,2013-01-12 04:07:00,
2013-01-11 23:12:00,69.4,66.7,30.16,East,88,0.0,1.0,91,0.00,,,0.01,meteohub,2013-01-12 04:12:00,
2013-01-11 23:17:00,69.4,66.7,30.16,East,88,1.0,3.0,91,0.00,,,0.01,meteohub,2013-01-12 04:17:00,
2013-01-11 23:22:00,69.3,66.9,30.16,ENE,76,1.0,3.0,92,0.00,,,0.01,meteohub,2013-01-12 04:22:00,
2013-01-11 23:27:00,69.3,66.9,30.17,ENE,76,1.0,3.0,92,0.00,,,0.01,meteohub,2013-01-12 04:27:00,
2013-01-11 23:32:00,69.3,66.9,30.17,ENE,76,0.0,3.0,92,0.00,,,0.01,meteohub,2013-01-12 04:32:00,
2013-01-11 23:37:00,69.3,66.9,30.16,ENE,76,0.0,2.0,92,0.00,,,0.01,meteohub,2013-01-12 04:37:00,
2013-01-11 23:42:00,69.3,66.9,30.17,ESE,117,1.0,2.0,92,0.00,,,0.01,meteohub,2013-01-12 04:42:00,
2013-01-11 23:47:00,69.3,66.9,30.17,ESE,115,0.0,2.0,92,0.00,,,0.01,meteohub,2013-01-12 04:47:00,
2013-01-11 23:52:00,69.3,66.9,30.17,SE,135,0.0,2.0,92,0.00,,,0.01,meteohub,2013-01-12 04:52:00,
2013-01-11 23:57:00,69.3,66.6,30.16,SE,142,0.0,3.0,91,0.00,,,0.01,meteohub,2013-01-12 04:57:00,